Select another period ( hide this area )

Units Period Custom range Directly to
Metric English Both
Daily Weekly Monthly Yearly
use both date-selectors for a custom range
previous Day
With this date
Daily Summary for Saturday Dec 3 2022
Time Temp. ( °C ) Dew pt. ( °C ) Wind ( km/h ) From Gust ( km/h ) Pressure ( hPa ) Humid.( % ) Rainrate ( cm ) Solar ( W/m2 )
High1,0 -0,9 30,0 NE ( 2181/3521 ) 29,0 1033,4 87 0,20 167
Average-0,3 -2,9 17,0 NE #125/207 16,7 1031,9 82 0,40 62 #77/207
Low-1,1 -4,6 -   0,0 1030,1 76 -  
Daily Tabular details for Saturday Dec 3 2022
Time Temp. ( °C ) Dew pt. ( °C ) Wind ( km/h ) From Gust ( km/h ) Pressure ( hPa ) Humid.( % ) Rainrate ( cm ) Solar ( W/m2 )
00:04 1,0 -0,9 9,0 NNE 10,0 1033,4 87 - -
00:09 1,0 -1,1 11,0 NE 10,0 1033,4 86 - -
00:14 0,9 -1,2 11,0 NNE 11,0 1033,4 86 - -
00:19 0,9 -1,2 15,0 NE 11,0 1033,4 86 - -
00:24 0,9 -1,2 8,0 NNE 15,0 1033,4 86 - -
00:29 0,9 -1,2 6,0 NE 8,0 1033,4 86 - -
00:34 0,8 -1,2 13,0 NE 6,0 1033,4 86 - -
00:39 0,8 -1,4 13,0 NE 13,0 1033,4 85 - -
00:44 0,8 -1,4 13,0 NE 13,0 1033,4 85 - -
00:49 0,8 -1,4 6,0 NE 13,0 1033,4 85 - -
00:54 0,8 -1,4 2,0 NE   1033,3 85 - -
00:59 0,7 -1,5 10,0 NE 4,0 1033,3 85 - -
01:04 0,7 -1,5 11,0 NE 10,0 1033,3 85 - -
01:09 0,7 -1,6 8,0 NE 11,0 1033,2 85 - -
01:14 0,7 -1,6 13,0 NE 8,0 1033,2 85 - -
01:19 0,6 -1,6 11,0 NE 13,0 1033,2 85 - -
01:24 0,6 -1,6 11,0 NE 11,0 1033,2 85 - -
01:29 0,6 -1,6 11,0 NE 11,0 1033,2 85 - -
01:34 0,6 -1,7 11,0 NE 11,0 1033,2 85 - -
01:39 0,6 -1,7 2,0 NE 11,0 1033,1 85 - -
01:44 0,6 -1,6 10,0 NNE 7,0 1033,1 85 - -
01:49 0,6 -1,6 21,0 NNE 15,0 1033,1 85 - -
01:54 0,7 -1,6 17,0 NE 21,0 1033,0 85 - -
01:59 0,7 -1,6 19,0 NE 16,0 1033,0 85 - -
02:04 0,7 -1,6 19,0 NNE 19,0 1033,0 85 - -
02:09 0,7 -1,6 11,0 NE 15,0 1033,0 85 - -
02:14 0,7 -1,6 10,0 NNE 11,0 1032,9 85 - -
02:19 0,7 -1,6 11,0 NE 10,0 1033,0 85 - -
02:24 0,7 -1,6 11,0 NNE 11,0 1033,0 85 - -
02:29 0,7 -1,6 21,0 NNE 10,0 1033,0 85 - -
02:34 0,7 -1,6 20,0 NE 21,0 1032,9 85 - -
02:39 0,7 -1,6 15,0 NE 15,0 1032,9 85 - -
02:44 0,7 -1,4 10,0 NE 15,0 1032,9 86 - -
02:49 0,6 -1,6 10,0 NE 10,0 1032,9 85 - -
02:54 0,6 -1,4 11,0 NE 10,0 1032,9 86 - -
02:59 0,6 -1,4 15,0 NNE 11,0 1032,9 86 - -
03:04 0,6 -1,4 15,0 NE 15,0 1032,9 86 - -
03:09 0,6 -1,4 13,0 NE 15,0 1032,9 86 - -
03:14 0,6 -1,4 13,0 NE 13,0 1032,9 86 - -
03:19 0,6 -1,4 8,0 NNE 11,0 1032,9 86 - -
03:24 0,6 -1,4 10,0 NE 8,0 1032,9 86 - -
03:29 0,6 -1,5 13,0 NE 10,0 1032,8 86 - -
03:34 0,6 -1,5 13,0 NE 13,0 1032,9 86 - -
03:39 0,6 -1,5 10,0 NE 10,0 1032,9 86 - -
03:44 0,5 -1,6 11,0 NE 10,0 1032,9 86 - -
03:49 0,5 -1,6 11,0 NE 11,0 1032,9 86 - -
03:54 0,5 -1,6 4,0 NNE 11,0 1032,9 86 - -
03:59 0,5 -1,6   Calm 3,0 1032,9 86 - -
04:04 0,5 -1,6 8,0 NE 1,0 1032,8 86 - -
04:09 0,5 -1,6 6,0 NNE 8,0 1032,8 86 - -
04:14 0,5 -1,6 10,0 NE 6,0 1032,8 86 - -
04:19 0,5 -1,6 10,0 NE 10,0 1032,7 86 - -
04:24 0,5 -1,6 9,0 NE 10,0 1032,7 86 - -
04:29 0,5 -1,6 17,0 NE 10,0 1032,7 86 - -
04:34 0,4 -1,6 17,0 NE 16,0 1032,6 86 - -
04:39 0,4 -1,6 6,0 NE 16,0 1032,6 86 - -
04:44 0,4 -1,6 8,0 NNE 5,0 1032,6 86 - -
04:49 0,4 -1,7 17,0 NE 9,0 1032,6 86 - -
04:54 0,3 -1,7 16,0 NNE 16,0 1032,6 86 - -
04:59 0,3 -1,7 17,0 NNE 16,0 1032,5 86 - -
05:04 0,3 -1,7 19,0 NE 16,0 1032,5 86 - -
05:09 0,3 -1,7 13,0 NNE 19,0 1032,4 86 - -
05:14 0,3 -1,7 13,0 NE 13,0 1032,4 86 - -
05:19 0,2 -1,8 11,0 NE 10,0 1032,4 86 - -
05:24 0,2 -1,8 11,0 NNE 11,0 1032,4 86 - -
05:29 0,2 -1,8 15,0 NNE 11,0 1032,4 86 - -
05:34 0,2 -1,9 17,0 NNE 15,0 1032,4 86 - -
05:39 0,2 -1,8 11,0 NE 16,0 1032,3 86 - -
05:44 0,2 -1,9 17,0 NNE 11,0 1032,3 86 - -
05:49 0,2 -1,9 11,0 NNE 16,0 1032,3 86 - -
05:54 0,1 -1,9 17,0 NNE 13,0 1032,3 86 - -
05:59 0,2 -1,9 13,0 NNE 16,0 1032,3 86 - -
06:04 0,2 -1,9 15,0 NNE 13,0 1032,3 86 - -
06:09 0,1 -1,9 17,0 NNE 15,0 1032,3 86 - -
06:14 0,1 -1,9 15,0 NNE 16,0 1032,2 86 - -
06:19 0,1 -1,9 17,0 NNE 15,0 1032,2 86 - -
06:24 0,1 -1,9 15,0 NNE 16,0 1032,2 86 - -
06:29 0,1 -1,9 19,0 NNE 15,0 1032,2 86 - -
06:34 0,1 -2,0 19,0 NNE 19,0 1032,1 86 - -
06:39 0,0 -2,1 19,0 NNE 19,0 1032,1 86 - -
06:44 -0,1 -2,1 17,0 NNE 16,0 1032,0 86 - -
06:49 -0,1 -2,2 19,0 NNE 15,0 1032,0 86 - -
06:54 -0,2 -2,2 19,0 NNE 19,0 1032,0 86 - -
06:59 -0,2 -2,3 19,0 NNE 19,0 1032,0 86 - -
07:04 -0,3 -2,4 23,0 NNE 19,0 1032,0 86 - -
07:09 -0,4 -2,4 21,0 NNE 23,0 1032,0 86 - -
07:14 -0,4 -2,4 24,0 NE 21,0 1032,0 86 - -
07:19 -0,4 -2,4 24,0 NE 24,0 1032,0 86 - -
07:24 -0,4 -2,4 19,0 NNE 24,0 1032,0 86 - -
07:29 -0,4 -2,6 19,0 NNE 19,0 1031,9 86 - -
07:34 -0,6 -2,7 21,0 NNE 19,0 1031,9 86 - -
07:39 -0,7 -2,7 20,0 NNE 15,0 1031,9 86 - -
07:44 -0,7 -2,8 19,0 NE 21,0 1031,9 86 - -
07:49 -0,7 -2,8 19,0 NE 19,0 1031,9 86 - -
07:54 -0,8 -2,8 19,0 NNE 19,0 1031,9 86 - -
07:59 -0,8 -2,9 19,0 NE 15,0 1031,9 86 - -
08:04 -0,9 -2,9 19,0 NNE 19,0 1031,9 86 - -
08:09 -0,9 -3,0 17,0 North 19,0 1031,9 86 - -
08:14 -0,9 -3,0 19,0 NE 16,0 1031,9 86 - -
08:19 -0,9 -3,0 17,0 NNE 19,0 1031,9 86 - -
08:24 -1,0 -3,1 17,0 North 16,0 1031,9 86 - -
08:29 -1,0 -3,2 16,0 North 16,0 1031,9 85 - -
08:34 -1,0 -3,2 17,0 NNE 16,0 1032,0 85 - -
08:39 -1,1 -3,3 19,0 NNE 13,0 1032,0 85 - 5
08:44 -1,0 -3,2 15,0 North 19,0 1032,0 85 - 5
08:49 -1,1 -3,3 19,0 North 15,0 1032,0 85 - 7
08:54 -1,1 -3,4 19,0 NNE 19,0 1032,0 84 - 11
08:59 -1,1 -3,4 11,0 NE 19,0 1031,9 84 - 14
09:04 -1,1 -3,4 15,0 NE 11,0 1031,9 84 - 14
09:09 -1,1 -3,4 13,0 NE 15,0 1031,9 84 - 14
09:14 -1,1 -3,4 10,0 NE 13,0 1032,0 84 - 14
09:19 -1,1 -3,4 19,0 NNE 10,0 1032,0 84 - 14
09:24 -1,1 -3,4 19,0 NE 19,0 1032,0 84 - 16
09:29 -1,1 -3,6 17,0 NE 19,0 1032,0 83 - 16
09:34 -1,1 -3,6 19,0 NNE 16,0 1032,0 83 - 18
09:39 -1,1 -3,6 19,0 North 19,0 1031,9 83 - 19
09:44 -1,1 -3,6 19,0 NNE 19,0 1031,8 83 - 21
09:49 -1,1 -3,7 21,0 NNE 19,0 1031,8 82 - 21
09:54 -1,0 -3,7 21,0 NNE 21,0 1031,9 82 - 25
09:59 -1,0 -3,7 23,0 NNE 21,0 1031,8 82 - 25
10:04 -1,0 -3,7 19,0 NNE 23,0 1031,8 82 - 26
10:09 -0,9 -3,7 23,0 NNE 19,0 1031,8 82 - 30
10:14 -0,9 -3,8 19,0 NE 23,0 1031,8 81 - 30
10:19 -0,9 -3,8 21,0 NE 19,0 1031,8 81 - 32
10:24 -1,0 -3,8 19,0 NE 21,0 1031,7 81 - 39
10:29 -1,0 -3,8 19,0 NE 19,0 1031,7 81 - 49
10:34 -0,9 -3,8 17,0 NE 19,0 1031,7 81 - 44
10:39 -0,9 -3,8 18,0 NE 16,0 1031,6 81 - 51
10:44 -0,9 -3,8 19,0 NE 19,0 1031,6 81 - 53
10:49 -0,9 -3,7 17,0 NE 19,0 1031,6 81 - 53
10:54 -0,9 -3,7 19,0 NE 16,0 1031,6 81 - 58
10:59 -0,9 -3,9 17,0 NE 19,0 1031,6 80 - 70
11:04 -0,8 -3,8 17,0 ENE 16,0 1031,6 80 - 58
11:09 -0,8 -3,8 17,0 NE 16,0 1031,6 80 - 62
11:14 -0,8 -3,8 16,0 NE 16,0 1031,5 80 - 76
11:19 -0,8 -3,8 26,0 NE 19,0 1031,5 80 - 86
11:24 -0,7 -3,7 23,0 ENE 26,0 1031,5 80 - 104
11:29 -0,6 -3,6 23,0 NE 23,0 1031,5 80 - 113
11:34 -0,6 -3,6 26,0 NE 23,0 1031,5 80 0,20 130
11:39 -0,5 -3,7 24,0 NE 26,0 1031,5 79 0,20 167
11:44 -0,3 -3,6 21,0 NE 19,0 1031,4 79 0,20 167
11:49 -0,3 -3,5 28,0 NE 21,0 1031,4 79 0,20 155
11:54 -0,2 -3,6 28,0 NNE 27,0 1031,4 78 0,20 148
11:59 -0,3 -3,9 30,0 NE 29,0 1031,4 77 0,20 144
12:04 -0,3 -3,9 24,0 NE 29,0 1031,4 77 0,20 137
12:09 -0,4 -3,9 26,0 NE 24,0 1031,5 77 0,20 141
12:14 -0,4 -3,9 24,0 NE 26,0 1031,4 77 0,20 141
12:19 -0,4 -3,9 27,0 NE 26,0 1031,4 77 0,20 137
12:24 -0,4 -3,9 28,0 NE 27,0 1031,4 77 0,20 142
12:29 -0,3 -3,9 21,0 NE 24,0 1031,4 77 0,20 146
12:34 -0,3 -3,9 21,0 NE 21,0 1031,3 77 0,20 148
12:39 -0,3 -3,8 24,0 NE 21,0 1031,4 77 - 144
12:44 -0,3 -4,0 22,0 NE 24,0 1031,3 76 - 139
12:49 -0,2 -3,9 23,0 NE 19,0 1031,3 76 - 125
12:54 -0,2 -3,9 23,0 NE 23,0 1031,2 76 - 121
12:59 -0,2 -3,9 24,0 NE 23,0 1031,2 76 - 118
13:04 -0,3 -4,0 19,0 NE 24,0 1031,2 76 - 100
13:09 -0,3 -4,0 21,0 NE 19,0 1031,1 76 - 93
13:14 -0,3 -4,1 19,0 NE 21,0 1031,0 76 - 44
13:19 -0,4 -4,2 19,0 NE 16,0 1030,9 76 - 37
13:24 -0,5 -4,1   Calm 19,0 1030,9 77 - 42
13:29 -0,6 -4,1 10,0 NE 5,0 1030,9 77 - 47
13:34 -0,6 -4,1 17,0 NNE 10,0 1030,9 77 - 47
13:39 -0,6 -4,2 19,0 NE 16,0 1030,8 77 - 51
13:44 -0,6 -4,2 19,0 NE 19,0 1030,7 77 - 54
13:49 -0,6 -4,2 19,0 NE 19,0 1030,7 77 - 53
13:54 -0,6 -4,1 19,0 NNE 19,0 1030,7 77 - 51
13:59 -0,6 -4,2 17,0 NNE 19,0 1030,6 77 - 51
14:04 -0,6 -4,2 11,0 NE 16,0 1030,7 77 - 47
14:09 -0,6 -4,1 5,0 NNE 11,0 1030,6 78 - 37
14:14 -0,7 -4,1 15,0 NNE 7,0 1030,6 78 - 32
14:19 -0,8 -4,1 17,0 NNE 15,0 1030,6 78 - 32
14:24 -0,8 -4,2 13,0 NNE 16,0 1030,6 78 - 30
14:29 -0,9 -4,2 15,0 NNE 13,0 1030,6 78 - 26
14:34 -0,9 -4,2 19,0 NNE 15,0 1030,6 78 - 23
14:39 -0,9 -4,2 17,0 NE 19,0 1030,5 78 - 16
14:44 -0,9 -4,2 23,0 NNE 16,0 1030,4 78 - 11
14:49 -0,9 -4,2 4,0 NNE 23,0 1030,3 78 - 9
14:54 -0,9 -4,3 23,0 NNE 10,0 1030,3 78 - 7
14:59 -0,9 -4,2 23,0 NE 23,0 1030,4 78 - 5
15:04 -0,9 -4,3 21,0 NE 23,0 1030,4 78 - -
15:09 -0,9 -4,4 23,0 NNE 21,0 1030,4 77 - -
15:14 -0,9 -4,4 22,0 NE 23,0 1030,4 77 - -
15:19 -0,9 -4,4 23,0 NE 23,0 1030,3 77 - -
15:24 -0,9 -4,4 19,0 NE 23,0 1030,3 77 - -
15:29 -0,9 -4,4 21,0 NE 19,0 1030,3 77 - -
15:34 -0,9 -4,4 21,0 NE 21,0 1030,2 77 - -
15:39 -0,9 -4,4 28,0 NE 21,0 1030,2 77 - -
15:44 -0,9 -4,4 21,0 NNE 27,0 1030,3 77 - -
15:49 -0,9 -4,6 21,0 NE 21,0 1030,2 76 - -
15:54 -0,9 -4,4 23,0 NE 21,0 1030,2 77 - -
15:59 -0,9 -4,4 21,0 NE 23,0 1030,2 77 - -
16:04 -0,9 -4,4 23,0 NE 21,0 1030,2 77 - -
16:09 -0,8 -4,4 24,0 NE 23,0 1030,2 77 - -
16:14 -0,8 -4,4 24,0 NE 24,0 1030,2 77 - -
16:19 -0,9 -4,4 23,0 NNE 24,0 1030,2 77 - -
16:24 -0,9 -4,4 26,0 NE 23,0 1030,1 77 - -
16:29 -0,9 -4,4 24,0 NE 26,0 1030,2 77 - -
16:34 -0,9 -4,4 24,0 NE 24,0 1030,2 77 - -
16:39 -0,9 -4,4 17,0 NE 21,0 1030,2 77 - -
16:44 -0,9 -4,2 21,0 NE 19,0 1030,4 78 - -
16:49 -0,9 -4,2 23,0 NE 21,0 1030,4 78 - -
16:54 -0,8 -4,2 26,0 NE 23,0 1030,5 78 - -
16:59 -0,9 -4,2 19,0 NE 26,0 1030,5 78 - -
17:04 -0,9 -4,2 30,0 NE 19,0 1030,6 78 - -
17:09 -0,9 -4,2 21,0 NE 29,0 1030,5 78 - -
17:14 -0,9 -4,2 23,0 NE 21,0 1030,4 78 - -
Daily Summary for Saturday Dec 3 2022
Time Temp. ( °C ) Dew pt. ( °C ) Wind ( km/h ) From Gust ( km/h ) Pressure ( hPa ) Humid.( % ) Rainrate ( cm ) Solar ( W/m2 )
High1,0 -0,9 30,0 NE ( 2181/3521 ) 29,0 1033,4 87 0,20 167
Average-0,3 -2,9 17,0 NE #125/207 16,7 1031,9 82 0,40 62 #77/207
Low-1,1 -4,6 -   0,0 1030,1 76 -  
Daily Tabular details for Saturday Dec 3 2022
Time Temp. ( °C ) Dew pt. ( °C ) Wind ( km/h ) From Gust ( km/h ) Pressure ( hPa ) Humid.( % ) Rainrate ( cm ) Solar ( W/m2 )
00:04 1,0 -0,9 9,0 NNE 10,0 1033,4 87 - -
00:09 1,0 -1,1 11,0 NE 10,0 1033,4 86 - -
00:14 0,9 -1,2 11,0 NNE 11,0 1033,4 86 - -
00:19 0,9 -1,2 15,0 NE 11,0 1033,4 86 - -
00:24 0,9 -1,2 8,0 NNE 15,0 1033,4 86 - -
00:29 0,9 -1,2 6,0 NE 8,0 1033,4 86 - -
00:34 0,8 -1,2 13,0 NE 6,0 1033,4 86 - -
00:39 0,8 -1,4 13,0 NE 13,0 1033,4 85 - -
00:44 0,8 -1,4 13,0 NE 13,0 1033,4 85 - -
00:49 0,8 -1,4 6,0 NE 13,0 1033,4 85 - -
00:54 0,8 -1,4 2,0 NE   1033,3 85 - -
00:59 0,7 -1,5 10,0 NE 4,0 1033,3 85 - -
01:04 0,7 -1,5 11,0 NE 10,0 1033,3 85 - -
01:09 0,7 -1,6 8,0 NE 11,0 1033,2 85 - -
01:14 0,7 -1,6 13,0 NE 8,0 1033,2 85 - -
01:19 0,6 -1,6 11,0 NE 13,0 1033,2 85 - -
01:24 0,6 -1,6 11,0 NE 11,0 1033,2 85 - -
01:29 0,6 -1,6 11,0 NE 11,0 1033,2 85 - -
01:34 0,6 -1,7 11,0 NE 11,0 1033,2 85 - -
01:39 0,6 -1,7 2,0 NE 11,0 1033,1 85 - -
01:44 0,6 -1,6 10,0 NNE 7,0 1033,1 85 - -
01:49 0,6 -1,6 21,0 NNE 15,0 1033,1 85 - -
01:54 0,7 -1,6 17,0 NE 21,0 1033,0 85 - -
01:59 0,7 -1,6 19,0 NE 16,0 1033,0 85 - -
02:04 0,7 -1,6 19,0 NNE 19,0 1033,0 85 - -
02:09 0,7 -1,6 11,0 NE 15,0 1033,0 85 - -
02:14 0,7 -1,6 10,0 NNE 11,0 1032,9 85 - -
02:19 0,7 -1,6 11,0 NE 10,0 1033,0 85 - -
02:24 0,7 -1,6 11,0 NNE 11,0 1033,0 85 - -
02:29 0,7 -1,6 21,0 NNE 10,0 1033,0 85 - -
02:34 0,7 -1,6 20,0 NE 21,0 1032,9 85 - -
02:39 0,7 -1,6 15,0 NE 15,0 1032,9 85 - -
02:44 0,7 -1,4 10,0 NE 15,0 1032,9 86 - -
02:49 0,6 -1,6 10,0 NE 10,0 1032,9 85 - -
02:54 0,6 -1,4 11,0 NE 10,0 1032,9 86 - -
02:59 0,6 -1,4 15,0 NNE 11,0 1032,9 86 - -
03:04 0,6 -1,4 15,0 NE 15,0 1032,9 86 - -
03:09 0,6 -1,4 13,0 NE 15,0 1032,9 86 - -
03:14 0,6 -1,4 13,0 NE 13,0 1032,9 86 - -
03:19 0,6 -1,4 8,0 NNE 11,0 1032,9 86 - -
03:24 0,6 -1,4 10,0 NE 8,0 1032,9 86 - -
03:29 0,6 -1,5 13,0 NE 10,0 1032,8 86 - -
03:34 0,6 -1,5 13,0 NE 13,0 1032,9 86 - -
03:39 0,6 -1,5 10,0 NE 10,0 1032,9 86 - -
03:44 0,5 -1,6 11,0 NE 10,0 1032,9 86 - -
03:49 0,5 -1,6 11,0 NE 11,0 1032,9 86 - -
03:54 0,5 -1,6 4,0 NNE 11,0 1032,9 86 - -
03:59 0,5 -1,6   Calm 3,0 1032,9 86 - -
04:04 0,5 -1,6 8,0 NE 1,0 1032,8 86 - -
04:09 0,5 -1,6 6,0 NNE 8,0 1032,8 86 - -
04:14 0,5 -1,6 10,0 NE 6,0 1032,8 86 - -
04:19 0,5 -1,6 10,0 NE 10,0 1032,7 86 - -
04:24 0,5 -1,6 9,0 NE 10,0 1032,7 86 - -
04:29 0,5 -1,6 17,0 NE 10,0 1032,7 86 - -
04:34 0,4 -1,6 17,0 NE 16,0 1032,6 86 - -
04:39 0,4 -1,6 6,0 NE 16,0 1032,6 86 - -
04:44 0,4 -1,6 8,0 NNE 5,0 1032,6 86 - -
04:49 0,4 -1,7 17,0 NE 9,0 1032,6 86 - -
04:54 0,3 -1,7 16,0 NNE 16,0 1032,6 86 - -
04:59 0,3 -1,7 17,0 NNE 16,0 1032,5 86 - -
05:04 0,3 -1,7 19,0 NE 16,0 1032,5 86 - -
05:09 0,3 -1,7 13,0 NNE 19,0 1032,4 86 - -
05:14 0,3 -1,7 13,0 NE 13,0 1032,4 86 - -
05:19 0,2 -1,8 11,0 NE 10,0 1032,4 86 - -
05:24 0,2 -1,8 11,0 NNE 11,0 1032,4 86 - -
05:29 0,2 -1,8 15,0 NNE 11,0 1032,4 86 - -
05:34 0,2 -1,9 17,0 NNE 15,0 1032,4 86 - -
05:39 0,2 -1,8 11,0 NE 16,0 1032,3 86 - -
05:44 0,2 -1,9 17,0 NNE 11,0 1032,3 86 - -
05:49 0,2 -1,9 11,0 NNE 16,0 1032,3 86 - -
05:54 0,1 -1,9 17,0 NNE 13,0 1032,3 86 - -
05:59 0,2 -1,9 13,0 NNE 16,0 1032,3 86 - -
06:04 0,2 -1,9 15,0 NNE 13,0 1032,3 86 - -
06:09 0,1 -1,9 17,0 NNE 15,0 1032,3 86 - -
06:14 0,1 -1,9 15,0 NNE 16,0 1032,2 86 - -
06:19 0,1 -1,9 17,0 NNE 15,0 1032,2 86 - -
06:24 0,1 -1,9 15,0 NNE 16,0 1032,2 86 - -
06:29 0,1 -1,9 19,0 NNE 15,0 1032,2 86 - -
06:34 0,1 -2,0 19,0 NNE 19,0 1032,1 86 - -
06:39 0,0 -2,1 19,0 NNE 19,0 1032,1 86 - -
06:44 -0,1 -2,1 17,0 NNE 16,0 1032,0 86 - -
06:49 -0,1 -2,2 19,0 NNE 15,0 1032,0 86 - -
06:54 -0,2 -2,2 19,0 NNE 19,0 1032,0 86 - -
06:59 -0,2 -2,3 19,0 NNE 19,0 1032,0 86 - -
07:04 -0,3 -2,4 23,0 NNE 19,0 1032,0 86 - -
07:09 -0,4 -2,4 21,0 NNE 23,0 1032,0 86 - -
07:14 -0,4 -2,4 24,0 NE 21,0 1032,0 86 - -
07:19 -0,4 -2,4 24,0 NE 24,0 1032,0 86 - -
07:24 -0,4 -2,4 19,0 NNE 24,0 1032,0 86 - -
07:29 -0,4 -2,6 19,0 NNE 19,0 1031,9 86 - -
07:34 -0,6 -2,7 21,0 NNE 19,0 1031,9 86 - -
07:39 -0,7 -2,7 20,0 NNE 15,0 1031,9 86 - -
07:44 -0,7 -2,8 19,0 NE 21,0 1031,9 86 - -
07:49 -0,7 -2,8 19,0 NE 19,0 1031,9 86 - -
07:54 -0,8 -2,8 19,0 NNE 19,0 1031,9 86 - -
07:59 -0,8 -2,9 19,0 NE 15,0 1031,9 86 - -
08:04 -0,9 -2,9 19,0 NNE 19,0 1031,9 86 - -
08:09 -0,9 -3,0 17,0 North 19,0 1031,9 86 - -
08:14 -0,9 -3,0 19,0 NE 16,0 1031,9 86 - -
08:19 -0,9 -3,0 17,0 NNE 19,0 1031,9 86 - -
08:24 -1,0 -3,1 17,0 North 16,0 1031,9 86 - -
08:29 -1,0 -3,2 16,0 North 16,0 1031,9 85 - -
08:34 -1,0 -3,2 17,0 NNE 16,0 1032,0 85 - -
08:39 -1,1 -3,3 19,0 NNE 13,0 1032,0 85 - 5
08:44 -1,0 -3,2 15,0 North 19,0 1032,0 85 - 5
08:49 -1,1 -3,3 19,0 North 15,0 1032,0 85 - 7
08:54 -1,1 -3,4 19,0 NNE 19,0 1032,0 84 - 11
08:59 -1,1 -3,4 11,0 NE 19,0 1031,9 84 - 14
09:04 -1,1 -3,4 15,0 NE 11,0 1031,9 84 - 14
09:09 -1,1 -3,4 13,0 NE 15,0 1031,9 84 - 14
09:14 -1,1 -3,4 10,0 NE 13,0 1032,0 84 - 14
09:19 -1,1 -3,4 19,0 NNE 10,0 1032,0 84 - 14
09:24 -1,1 -3,4 19,0 NE 19,0 1032,0 84 - 16
09:29 -1,1 -3,6 17,0 NE 19,0 1032,0 83 - 16
09:34 -1,1 -3,6 19,0 NNE 16,0 1032,0 83 - 18
09:39 -1,1 -3,6 19,0 North 19,0 1031,9 83 - 19
09:44 -1,1 -3,6 19,0 NNE 19,0 1031,8 83 - 21
09:49 -1,1 -3,7 21,0 NNE 19,0 1031,8 82 - 21
09:54 -1,0 -3,7 21,0 NNE 21,0 1031,9 82 - 25
09:59 -1,0 -3,7 23,0 NNE 21,0 1031,8 82 - 25
10:04 -1,0 -3,7 19,0 NNE 23,0 1031,8 82 - 26
10:09 -0,9 -3,7 23,0 NNE 19,0 1031,8 82 - 30
10:14 -0,9 -3,8 19,0 NE 23,0 1031,8 81 - 30
10:19 -0,9 -3,8 21,0 NE 19,0 1031,8 81 - 32
10:24 -1,0 -3,8 19,0 NE 21,0 1031,7 81 - 39
10:29 -1,0 -3,8 19,0 NE 19,0 1031,7 81 - 49
10:34 -0,9 -3,8 17,0 NE 19,0 1031,7 81 - 44
10:39 -0,9 -3,8 18,0 NE 16,0 1031,6 81 - 51
10:44 -0,9 -3,8 19,0 NE 19,0 1031,6 81 - 53
10:49 -0,9 -3,7 17,0 NE 19,0 1031,6 81 - 53
10:54 -0,9 -3,7 19,0 NE 16,0 1031,6 81 - 58
10:59 -0,9 -3,9 17,0 NE 19,0 1031,6 80 - 70
11:04 -0,8 -3,8 17,0 ENE 16,0 1031,6 80 - 58
11:09 -0,8 -3,8 17,0 NE 16,0 1031,6 80 - 62
11:14 -0,8 -3,8 16,0 NE 16,0 1031,5 80 - 76
11:19 -0,8 -3,8 26,0 NE 19,0 1031,5 80 - 86
11:24 -0,7 -3,7 23,0 ENE 26,0 1031,5 80 - 104
11:29 -0,6 -3,6 23,0 NE 23,0 1031,5 80 - 113
11:34 -0,6 -3,6 26,0 NE 23,0 1031,5 80 0,20 130
11:39 -0,5 -3,7 24,0 NE 26,0 1031,5 79 0,20 167
11:44 -0,3 -3,6 21,0 NE 19,0 1031,4 79 0,20 167
11:49 -0,3 -3,5 28,0 NE 21,0 1031,4 79 0,20 155
11:54 -0,2 -3,6 28,0 NNE 27,0 1031,4 78 0,20 148
11:59 -0,3 -3,9 30,0 NE 29,0 1031,4 77 0,20 144
12:04 -0,3 -3,9 24,0 NE 29,0 1031,4 77 0,20 137
12:09 -0,4 -3,9 26,0 NE 24,0 1031,5 77 0,20 141
12:14 -0,4 -3,9 24,0 NE 26,0 1031,4 77 0,20 141
12:19 -0,4 -3,9 27,0 NE 26,0 1031,4 77 0,20 137
12:24 -0,4 -3,9 28,0 NE 27,0 1031,4 77 0,20 142
12:29 -0,3 -3,9 21,0 NE 24,0 1031,4 77 0,20 146
12:34 -0,3 -3,9 21,0 NE 21,0 1031,3 77 0,20 148
12:39 -0,3 -3,8 24,0 NE 21,0 1031,4 77 - 144
12:44 -0,3 -4,0 22,0 NE 24,0 1031,3 76 - 139
12:49 -0,2 -3,9 23,0 NE 19,0 1031,3 76 - 125
12:54 -0,2 -3,9 23,0 NE 23,0 1031,2 76 - 121
12:59 -0,2 -3,9 24,0 NE 23,0 1031,2 76 - 118
13:04 -0,3 -4,0 19,0 NE 24,0 1031,2 76 - 100
13:09 -0,3 -4,0 21,0 NE 19,0 1031,1 76 - 93
13:14 -0,3 -4,1 19,0 NE 21,0 1031,0 76 - 44
13:19 -0,4 -4,2 19,0 NE 16,0 1030,9 76 - 37
13:24 -0,5 -4,1   Calm 19,0 1030,9 77 - 42
13:29 -0,6 -4,1 10,0 NE 5,0 1030,9 77 - 47
13:34 -0,6 -4,1 17,0 NNE 10,0 1030,9 77 - 47
13:39 -0,6 -4,2 19,0 NE 16,0 1030,8 77 - 51
13:44 -0,6 -4,2 19,0 NE 19,0 1030,7 77 - 54
13:49 -0,6 -4,2 19,0 NE 19,0 1030,7 77 - 53
13:54 -0,6 -4,1 19,0 NNE 19,0 1030,7 77 - 51
13:59 -0,6 -4,2 17,0 NNE 19,0 1030,6 77 - 51
14:04 -0,6 -4,2 11,0 NE 16,0 1030,7 77 - 47
14:09 -0,6 -4,1 5,0 NNE 11,0 1030,6 78 - 37
14:14 -0,7 -4,1 15,0 NNE 7,0 1030,6 78 - 32
14:19 -0,8 -4,1 17,0 NNE 15,0 1030,6 78 - 32
14:24 -0,8 -4,2 13,0 NNE 16,0 1030,6 78 - 30
14:29 -0,9 -4,2 15,0 NNE 13,0 1030,6 78 - 26
14:34 -0,9 -4,2 19,0 NNE 15,0 1030,6 78 - 23
14:39 -0,9 -4,2 17,0 NE 19,0 1030,5 78 - 16
14:44 -0,9 -4,2 23,0 NNE 16,0 1030,4 78 - 11
14:49 -0,9 -4,2 4,0 NNE 23,0 1030,3 78 - 9
14:54 -0,9 -4,3 23,0 NNE 10,0 1030,3 78 - 7
14:59 -0,9 -4,2 23,0 NE 23,0 1030,4 78 - 5
15:04 -0,9 -4,3 21,0 NE 23,0 1030,4 78 - -
15:09 -0,9 -4,4 23,0 NNE 21,0 1030,4 77 - -
15:14 -0,9 -4,4 22,0 NE 23,0 1030,4 77 - -
15:19 -0,9 -4,4 23,0 NE 23,0 1030,3 77 - -
15:24 -0,9 -4,4 19,0 NE 23,0 1030,3 77 - -
15:29 -0,9 -4,4 21,0 NE 19,0 1030,3 77 - -
15:34 -0,9 -4,4 21,0 NE 21,0 1030,2 77 - -
15:39 -0,9 -4,4 28,0 NE 21,0 1030,2 77 - -
15:44 -0,9 -4,4 21,0 NNE 27,0 1030,3 77 - -
15:49 -0,9 -4,6 21,0 NE 21,0 1030,2 76 - -
15:54 -0,9 -4,4 23,0 NE 21,0 1030,2 77 - -
15:59 -0,9 -4,4 21,0 NE 23,0 1030,2 77 - -
16:04 -0,9 -4,4 23,0 NE 21,0 1030,2 77 - -
16:09 -0,8 -4,4 24,0 NE 23,0 1030,2 77 - -
16:14 -0,8 -4,4 24,0 NE 24,0 1030,2 77 - -
16:19 -0,9 -4,4 23,0 NNE 24,0 1030,2 77 - -
16:24 -0,9 -4,4 26,0 NE 23,0 1030,1 77 - -
16:29 -0,9 -4,4 24,0 NE 26,0 1030,2 77 - -
16:34 -0,9 -4,4 24,0 NE 24,0 1030,2 77 - -
16:39 -0,9 -4,4 17,0 NE 21,0 1030,2 77 - -
16:44 -0,9 -4,2 21,0 NE 19,0 1030,4 78 - -
16:49 -0,9 -4,2 23,0 NE 21,0 1030,4 78 - -
16:54 -0,8 -4,2 26,0 NE 23,0 1030,5 78 - -
16:59 -0,9 -4,2 19,0 NE 26,0 1030,5 78 - -
17:04 -0,9 -4,2 30,0 NE 19,0 1030,6 78 - -
17:09 -0,9 -4,2 21,0 NE 29,0 1030,5 78 - -
17:14 -0,9 -4,2 23,0 NE 21,0 1030,4 78 - -

Download your copy of this data-set  from WeatherUnderground

Our weather-data as stored at Weather Underground. Original script b Jim McMurry. Rewritten for template use Leuven-Template